Regional Weather Roundup
Issued by NWS Grand Forks, ND

Home | Current Version | Previous Version | Graphics & Text | Print | Product List | Glossary On
Versions: 1 2 3 4 5 6 7 8 9 10 11 12 13 14 15 16 17 18 19 20 21 22 23 24 25 26 27 28 29 30 31 32 33 34 35 36 37 38 39 40 41 42 43 44 45 46 47 48 49 50
000
ASUS43 KFGF 250410
RWRFGF
PRAIRIE TO PINES  WEATHER ROUNDUP
NATIONAL WEATHER SERVICE EASTERN NORTH DAKOTA/GRAND FORKS ND
1100 PM CDT WED MAY 24 2017

 **SATELLITE DATA USED TO AUGMENT SKY COVER AT AUTOMATED STATIONS**
 *****  WEATHER ACROSS EASTERN NORTH DAKOTA  *****

CITY           SKY/WX    TMP DP  RH WIND       PRES   REMARKS
GRAND FORKS    FAIR      57  43  59 SE13      29.60S
GRAND FRKS AFB FAIR      55  42  61 SE12      29.60S
DEVILS LAKE    FAIR      55  44  66 SE17      29.56R
FARGO          FAIR      56  43  61 SE16      29.62F
WAHPETON ARPT  FAIR      54  43  66 SE12      29.65F
$$

 ***** WEATHER ACROSS CENTRAL AND WESTERN NORTH DAKOTA  *****

CITY           SKY/WX    TMP DP  RH WIND       PRES   REMARKS
BISMARCK       FAIR      60  42  51 SE16G23   29.40S
MINOT          MOCLDY    64  42  44 SE13      29.40R
JAMESTOWN      FAIR      54  44  69 SE21G28   29.52F
MINOT AFB      MOCLDY    62  43  49 SE14      29.39R
GARRISON         N/A     60  40  47 SE16      29.39R
WILLISTON      LGT RAIN  56  52  86 S6        29.41R
DICKINSON      RAIN      58  43  57 S12       29.39R
HETTINGER      MOCLDY    61  39  44 SE16      29.35F
$$

 *****  OTHER AIRPORT OBSERVATIONS IN OUR AREA  *****

CITY           SKY/WX    TMP DP  RH WIND       PRES   REMARKS
WALHALLA       NOT AVBL
GRAFTON AIRPOR FAIR      55  43  62 SE15      29.61F
VALLEY CITY AR FAIR      52  46  82 SE17      29.59S
CANDO          NOT AVBL
CAVALIER APRT  FAIR      59  41  51 S13G20    29.59R
GWINNER        CLEAR     52  46  82 MISG      29.60S
SHEYENNE NWR     N/A     52  45  76 SE10      29.95S
ROLLA          FAIR      55  41  58 SE21G28   29.51F
 ***** THE ABOVE OBSERVATIONS ARE NON NWS ARE NOT QUALITY
       CONTROLLED AND MAY MIS-REPORT RAIN FOR SNOW...
$$

  *****  WEATHER ACROSS NORTHERN MINNESOTA  *****

CITY           SKY/WX    TMP DP  RH WIND       PRES   REMARKS
FLAG ISLAND    NOT AVBL
WARROAD        NOT AVBL
ROSEAU         NOT AVBL
HALLOCK        NOT AVBL
THF RVR FALLS  MOCLDY    54  42  64 SE10      29.66F
BAUDETTE       FAIR      50  40  68 S7        29.70R
WASKISH        NOT AVBL
CROOKSTON      NOT AVBL
STEPHEN NDAWN    N/A     54  41  62 SE9         N/A
GREENBUSH NDAW   N/A     55  41  58 SE12        N/A
$$
  *****  WEATHER ACROSS CENTRAL AND WEST MINNESOTA  *****

CITY           SKY/WX    TMP DP  RH WIND       PRES   REMARKS
FOSSTON        NOT AVBL
BEMIDJI        NOT AVBL
PARK RAPIDS    MOCLDY    54  40  59 SE7       29.69S
ELBOW LAKE     NOT AVBL
WADENA         NOT AVBL
DETROIT LAKES  NOT AVBL
MOORHEAD       NOT AVBL
FERGUS FALLS   NOT AVBL
MORRIS MN      NOT AVBL
STAPLES        NOT AVBL
$$
  *****  WEATHER ELSEWHERE ACROSS MINNESOTA  *****

CITY           SKY/WX    TMP DP  RH WIND       PRES   REMARKS
DULUTH         FAIR      46  42  86 E8        29.75F
INTRNTL FALLS  FAIR      48  38  68 SE6       29.72R
ELY            NOT AVBL
CLOQUET        NOT AVBL
WHEATON        NOT AVBL
BRAINERD       CLOUDY    54  44  69 CALM      29.72R
HIBBING        FAIR      42  38  85 SE5       29.75S
ALEXANDRIA     FAIR      50  41  71 SE6       29.71R
SAINT CLOUD    CLOUDY    54  47  77 E3        29.71S
MINNEAPOLIS    CLOUDY    58  44  60 E5        29.71S
$$

  *****  WEATHER ACROSS SOUTH DAKOTA  *****

CITY           SKY/WX    TMP DP  RH WIND       PRES   REMARKS
SIOUX FALLS    FAIR      53  45  74 SE10      29.65R
BROOKINGS      FAIR      50  44  80 SE10      29.65S
WATERTOWN      FAIR      50  43  77 SE9       29.63S
HURON          FAIR      53  46  77 SE12      29.56F
SISSETON         N/A     50  45  83 S9        29.63S
ABERDEEN       FAIR      54  42  64 SE13      29.56S
MITCHELL       FAIR      55  46  71 SE13      29.59S
PIERRE         FAIR      58  43  57 SE18G26   29.42R
MOBRIDGE       FAIR      60  41  49 SE26G39   29.39S
RAPID CITY     FAIR      66  50  56 S17       29.28F
$$

  *****  SOME WEATHER IN NEARBY STATES *****

CITY           SKY/WX    TMP DP  RH WIND       PRES   REMARKS
GLASGOW MT       N/A    N/A N/A N/A MISG      29.36F
GREAT FALLS MT CLOUDY    50  24  36 W20G31    29.52R
CHEYENNE WY    FAIR      57  38  48 SW7       29.63R
SCOTTSBLUFF NE FAIR      69  41  36 W6        29.45R
OMAHA NE       FAIR      56  45  66 CALM      29.68S
DES MOINES IA  FAIR      55  49  80 CALM      29.69S
DAVENPORT IA   CLOUDY    56  51  84 N10       29.67R
CHICAGO IL     CLOUDY    54  48  80 N10       29.56S
EAU CLAIRE WI  CLOUDY    52  49  89 CALM      29.72R
LA CROSSE WI   CLOUDY    57  51  80 E5        29.70S
$$

  *****  SOME NATIONAL WEATHER *****

CITY           SKY/WX    TMP DP  RH WIND       PRES   REMARKS
LA GUARDIA NY  CLOUDY    60  51  72 E9        29.82R
RALEIGH NC     CLOUDY    69  67  93 S13       29.53F
ATLANTA GA     FAIR      60  53  77 W9        29.60R
NEW ORLEANS LA FAIR      64  56  75 W7        29.77R
OKLAHOMA CITY  FAIR      57  47  69 SE7       29.71R
ALBUQUERQUE NM FAIR      76  17  11 W5        29.79R
SALT LAKE CITY CLOUDY    75  39  27 S15       29.51F
LOS ANGELES CA CLOUDY    59  54  83 SW13      29.83R
BOISE ID       FAIR      61  26  26 N21       29.65R
SEATTLE WA     MOCLDY    58  41  53 N7        29.94F
$$

*** WEATHER ACROSS MANITOBA...SASKATCHEWAN AND ONTARIO ***
                ***ONTARIO***

CITY           SKY/WX    TMP DP  RH WIND       PRES   REMARKS
GERALDTON      CLEAR     46  36  66 CALM      29.81S
THUNDER BAY    CLEAR     46  36  66 E6        29.78S
SIOUX LOOKOUT  CLEAR     55  27  33 SE6       29.73S
TORONTO        LGT RAIN  59  50  72 E10       29.62F
BIG TROUT LK   CLEAR     52  30  43 SE10      29.73S
PICKLE LAKE    NOT AVBL
DRYDEN         CLEAR     57  30  35 SE9       29.71S
KENORA         CLEAR     55  34  44 S7        29.69R
$$
                *** MANITOBA***

CITY           SKY/WX    TMP DP  RH WIND       PRES   REMARKS
BRANDON        CLOUDY    59  41  51 SE20G28   29.47S
DAUPHIN        CLOUDY    63  41  45 S15G24    29.43F
ISLAND LAKE    PTCLDY    59  34  38 SE5       29.62R
PILOT MOUND      N/A     55  41  58 SE21        N/A
THE PAS        CLOUDY    61  41  48 SE15      29.41F
THOMPSON       MOCLDY    59  36  41 VRB2      29.54S
WINNIPEG       PTCLDY    59  39  47 S14       29.60R
LYNN LAKE      MOCLDY    59  37  44 S6        29.45R
CHURCHILL      MOCLDY    48  45  87 E9        29.52S
GILLAM         PTCLDY    57  36  44 S6        29.57R
$$
                ***SASKATCHEWAN***

CITY           SKY/WX    TMP DP  RH WIND       PRES   REMARKS
ESTEVAN        LGT RAIN  55  52  88 S10G25    29.37R
KINDERSLEY     CLOUDY    48  39  71 SW8       29.16R
LLOYDMINSTER   LGT RAIN  52  52 100 N18       29.24R
PRINCE ALBERT  LGT RAIN  52  46  82 SE6       29.20S
REGINA         MOCLDY    55  34  44 E3        29.27R
YORKTON          N/A     55  48  76 SE17G24   29.32F
N. BATTLEFORD  CLEAR     45 N/A N/A N5        29.17R
LA RONGE       LGT RAIN  52  46  82 NE7       29.33F
SASKATOON      MOCLDY    50  41  71 S8        29.21R
SWIFT CURRENT  CLOUDY    48  37  66 SW13      29.23S
$$
NOTE: THESE ARE AUTOMATED STATIONS WITH LIMITED QUALITY CONTROL
      "FAIR" INDICATES FEW OR NO CLOUDS BELOW 12,000 FEET WITH NO
      SIGNIFICANT WEATHER AND/OR OBSTRUCTIONS TO VISIBILITY.
      SKY/WX - SKY CONDITION AND SIGNIFICANT WEATHER.
      TMP - AIR TEMPERATURE.    DP   - DEWPOINT TEMPERATURE.
      RH  - RELATIVE HUMIDITY.  PRES - PRESSURE.
      HX  - HEAT INDEX.         WCI  - WIND CHILL INDEX.
$




USA.gov is the U.S. government's official web portal to all federal, state and local government web resources and services.